Home > Weather > Chengdu > Past weeks

Flag for China Weather for the Past 2 Weeks in Chengdu, Sichuan, China

Now
61 °F

Fog.


Feels Like: 61 °F
Forecast: 64 / 85 °F
Wind: 1 mph from North

Location: Chengdu Airport

Current Time: Apr 30, 2016 at 9:50:40 AM

Latest Report: Apr 30, 2016 at 8:00 AM


Visibility: 0 mi

Pressure: 29.89 "Hg

Humidity: 100%

Dew Point: 61 °F

Location of ChengduLocation

Historic Weather in Chengdu — Graph

°F

Chengdu Temperature Yesterday

Maximum temperature yesterday: 73 °F (at 1:00 PM)
Minimum temperature yesterday: 63 °F (at 6:00 AM)
Average temperature yesterday: 67 °F

High & Low Weather Summary for the Past Weeks

 TemperatureHumidityPressure
High82 °F (Apr 28, 1:00 PM)100% (Apr 15, 8:00 AM)30.18 "Hg (Apr 15, 8:00 AM)
Low54 °F (Apr 18, 5:00 AM)33% (Apr 17, 5:00 PM)29.71 "Hg (Apr 15, 1:00 PM)
Average66 °F75%29.92 "Hg
* Reported Apr 15 8:00 AM — Apr 30 8:00 AM, Chengdu, Weather by CustomWeather, © 2016

Note: Actual official high and low records may vary slightly from our data, if they occured in-between our weather recording intervals... More about our weather records

Advertising

Chengdu Weather History for the Previous 24 Hours

Scroll right to see more
 ConditionsComfort  
Time TempWeatherWind HumidityBarometerVisibility
8:00 AM
Sat, Apr 30
61 °FFog.1 mph100%29.89 "Hg0 mi
7:00 AM61 °FFog.1 mph100%29.89 "Hg0 mi
6:00 AM61 °FFog.1 mph100%29.86 "Hg0 mi
5:00 AM59 °FFog.No wind100%29.86 "Hg0 mi
4:00 AM61 °FFog.1 mph100%29.89 "Hg2 mi
3:00 AM61 °FFog.1 mph100%29.92 "Hg2 mi
2:00 AM61 °FFog.No wind100%29.92 "Hg2 mi
1:00 AM63 °FFog.No wind100%29.98 "Hg2 mi
12:00 AM64 °FFog.3 mph94%29.98 "Hg2 mi
11:00 PM
Fri, Apr 29
64 °FPassing clouds.3 mph88%29.98 "Hg4 mi
10:00 PM64 °FPassing clouds.1 mph94%29.98 "Hg4 mi
9:00 PM64 °FPassing clouds.3 mph94%29.98 "Hg4 mi
8:00 PM66 °FSprinkles. Passing clouds.3 mph83%29.98 "Hg4 mi
7:00 PM68 °FSprinkles. Scattered clouds.1 mph83%29.95 "Hg4 mi
6:00 PM68 °FSprinkles. Partly sunny.3 mph83%29.95 "Hg4 mi
5:00 PM68 °FSprinkles. Partly sunny.3 mph83%29.95 "Hg5 mi
4:00 PM68 °FSprinkles. Scattered clouds.6 mph83%29.98 "HgN/A
3:00 PM72 °FSprinkles. Scattered clouds.3 mph61%29.98 "HgN/A
2:00 PM72 °FScattered clouds.3 mph65%30.01 "Hg5 mi
1:00 PM73 °FScattered clouds.1 mph61%30.04 "Hg5 mi
12:00 PM72 °FScattered clouds.3 mph65%30.04 "Hg4 mi
11:00 AM70 °FFog.1 mph73%30.07 "Hg3 mi
10:00 AM68 °FFog.1 mph78%30.07 "Hg3 mi
9:00 AM66 °FFog.3 mph83%30.07 "Hg2 mi
Weather by CustomWeather, © 2016

See weather overviewHow to use our weather pages